Regional Weather Roundup
Issued by NWS

Home | Current Version | Previous Version | Text Only | Print | Product List | Glossary Off
Versions: 1 2 3 4 5 6 7 8 9 10 11 12 13 14 15 16 17 18 19 20 21 22 23 24 25 26 27 28 29 30 31 32 33 34 35 36 37 38 39 40 41 42 43 44 45 46 47 48 49 50

000
ASUS43 KLOT 021712
RWRIL

ILLINOIS REGIONAL WEATHER ROUNDUP
NATIONAL WEATHER SERVICE CHICAGO/ROMEOVILLE IL
1100 AM CST FRI DEC 02 2016

NOTE: "FAIR" INDICATES FEW OR NO CLOUDS BELOW 12,000 FEET WITH NO
SIGNIFICANT WEATHER AND/OR OBSTRUCTIONS TO VISIBILITY.

* THESE STATIONS ARE NOT UNDER NWS QUALITY CONTROL. THEY ALSO MAY NOT
  REPORT WEATHER SUCH AS PRECIPITATION OR FOG.

ILZ001-002-007-009-015-016-024-021800-
NORTHWEST ILLINOIS

CITY           SKY/WX    TMP DP  RH WIND       PRES   REMARKS
MOLINE         CLOUDY    40  32  73 W8        30.22R
STERLING*      CLOUDY    40  34  79 W10       30.20S
SAVANNA*       CLOUDY    39  29  69 NW10      30.20S WCI  32
$$

ILZ003-004-008-010-011-017-018-021800-
NORTH CENTRAL ILLINOIS

CITY           SKY/WX    TMP DP  RH WIND       PRES   REMARKS
ROCKFORD       CLOUDY    36  32  85 NW7       30.20R WCI  30
FREEPORT*      CLOUDY    37  30  77 NW7       30.20R WCI  31
ROCHELLE*      CLOUDY    40  31  71 NW9       30.18S
DE KALB*       LGT RAIN  35  32  88 NW8       30.18R WCI  29
$$

ILZ005-006-012>014-019>023-021800-
NORTHEAST ILLINOIS

CITY           SKY/WX    TMP DP  RH WIND       PRES   REMARKS
CHICAGO-OHARE  CLOUDY    38  30  73 W10       30.15S WCI  31
CHICAGO-MIDWAY CLOUDY    39  30  70 NW9       30.17R WCI  33
AURORA         CLOUDY    40  34  79 W14       30.17S
LANSING*       CLOUDY    39  34  82 W12       30.17S WCI  31
JOLIET*        CLOUDY    40  36  85 W8        30.18F
WAUKEGAN       CLOUDY    37  26  64 NW9       30.15S WCI  30
DUPAGE AIRPORT FLURRIES  34  31  88 W5        30.16R WCI  30
KANKAKEE*      CLOUDY    39  34  82 W10       30.20S WCI  32
WHEELING       CLOUDY    37  28  70 NW10      30.17S WCI  30
MORRIS*        CLOUDY    39  36  86 W12       30.18S WCI  32
ROMEOVILLE*    CLOUDY    38  37  95 W10G16    30.17S WCI  31
NORTHERLY ISL    N/A     39  31  73 W8          N/A  WCI  33
$$

LMZ740>746-021800-
SOUTHERN LAKE MICHIGAN

STATION/POSITION SKY/WX   TEMP    WIND        PRES    VSBY  WAVE
                          AIR SEA DIR/SP/G                  HT/PER
                          (F)     (DEG/KT/KT) (MB)    (MI)  (FT/S)
SOUTHERN BUOY              37 49  300/ 14/ 19 1020.8R         3/ 5
HARRISON CRIB              39     330/ 10/ 11   N/A
BURNHAM HARBOR             39     280/  7/ 12   N/A
CALUMET HARBOR             38     260/  6/ 13 1020.9R
BURNS HARBOR               40     280/ 12/ 18 1021.3S
MICHIGAN CITY              39     280/ 19/ 21   N/A
$$

ILZ025>027-034>036-040-047-049-050-058-095>099-021800-
WEST-CENTRAL ILLINOIS

CITY           SKY/WX    TMP DP  RH WIND       PRES   REMARKS
QUINCY         SUNNY     41  32  70 W8        30.26S
GALESBURG*     CLOUDY    39  33  76 W9        30.22F WCI  33
MACOMB*        CLOUDY    40  32  74 W9        30.26S
JACKSONVILLE*  CLOUDY    40  31  70 W9        30.26S
PITTSFIELD*    MOSUNNY   41  31  69 W7        30.28S
$$

ILZ028>032-037-038-041>044-048-051>054-059>061-021800-
CENTRAL ILLINOIS

CITY           SKY/WX    TMP DP  RH WIND       PRES   REMARKS
PONTIAC        CLOUDY    39  37  91 W12       30.22S WCI  32
BLOOMINGTON    CLOUDY    38  33  82 W10       30.22S WCI  31
DECATUR        CLOUDY    40  29  64 NW9       30.25R
PEORIA         CLOUDY    40  33  76 W10       30.23S
LACON*         CLOUDY    39  34  80 W7        30.21S WCI  34
LINCOLN*       CLOUDY    40  33  75 W3        30.24S
SPRINGFIELD    CLOUDY    40  32  73 W9        30.26S
TAYLORVILLE    CLOUDY    39  32  76 W10       30.26F WCI  32
$$

ILZ033-039-045-046-055>057-062-063-021800-
EAST-CENTRAL ILLINOIS

CITY           SKY/WX    TMP DP  RH WIND       PRES   REMARKS
CHAMPAIGN      CLOUDY    40  32  73 W14       30.23S
RANTOUL*       CLOUDY    40  36  84 W9        30.22S
MATTOON        CLOUDY    40  30  67 W12       30.24S
PARIS*         CLOUDY    39  34  81 W13       30.24S WCI  32
$$

ILZ079-100>102-021800-
SOUTHWEST ILLINOIS

CITY           SKY/WX    TMP DP  RH WIND       PRES   REMARKS
ALTON          SUNNY     41  30  65 W8        30.27F
BELLEVILLE     SUNNY     46  30  54 W6        30.26S
CAHOKIA*       SUNNY     45  29  53 NW6       30.27F
SPARTA*        SUNNY     42  30  62 W3        30.29F
$$

ILZ064>066-069>071-074>076-080>082-084>086-088>090-092>094-021800-
SOUTH-CENTRAL ILLINOIS

CITY           SKY/WX    TMP DP  RH WIND       PRES   REMARKS
CARBONDALE     SUNNY     43  31  62 N3        30.29F
CAIRO*         SUNNY     47  32  56 NE5       30.28F
EFFINGHAM*     CLOUDY    41  34  74 W9        30.27F
MARION         SUNNY     45  30  57 NW8       30.29F
CENTRALIA*     SUNNY     43  32  64 NW7       30.27F
SALEM*         MOSUNNY   43  34  70 SW7       30.27S
METROPOLIS*    SUNNY     47  30  52 CALM      30.29F
$$

ILZ067-068-072-073-078-083-087-091-021800-
SOUTHEAST ILLINOIS

CITY           SKY/WX    TMP DP  RH WIND       PRES   REMARKS
LAWRENCEVILLE  CLOUDY    42  31  64 NW12      30.27F
FLORA*         SUNNY     44  32  63 NW7       30.27F
FAIRFIELD*     SUNNY     43  32  65 NW3       30.27F
HARRISBURG*    SUNNY     44  33  66 CALM      30.29F
ROBINSON*      CLOUDY    39  32  73 W10       30.27S WCI  33
CARMI*         SUNNY     42  32  69 NW7       30.28F
$$

ABBREVIATIONS USED IN REMARKS
   TC - TEMPERATURE IN CELSIUS
  WCI - WIND CHILL INDEX
   HX - HEAT INDEX
  VSB - VISIBILITY
$$




USA.gov is the U.S. government's official web portal to all federal, state and local government web resources and services.